Theta_e
282 282 283 283 282 282 282 282 282 282 281 280 280 279 279 279 280 279 279 279 280 280 278 278 279 278 278 278 278 278 278 278 278 278 279 279 280 280 280 280 280 280 280 280 280 280 280 279 280 280 281 281 282 282 282 282 282 282 283 284 284 284
283 283 283 283 283 283 283 283 282 281 280 280 279 279 278 278 278 278 279 279 278 278 278 277 277 278 278 277 277 278 277 277 278 278 278 279 279 278 278 278 278 279 279 279 280 280 280 280 280 280 280 280 280 281 281 282 283 283 283 283 283 284
283 283 283 284 283 283 282 280 280 280 279 278 278 278 278 278 278 278 278 278 277 277 276 277 277 277 277 277 277 277 277 277 278 277 277 277 278 278 278 278 278 278 278 278 279 279 279 279 280 280 280 280 280 280 280 281 281 281 282 283 284 284
280 281 281 281 281 281 280 280 279 279 278 278 278 278 278 278 278 278 277 277 277 276 276 276 276 276 276 276 276 277 277 277 277 277 277 277 277 277 277 277 278 278 278 278 278 278 278 278 279 279 279 279 279 279 281 281 280 280 280 281 281 283
282 282 282 282 282 282 281 280 279 279 278 278 278 278 279 278 278 277 277 277 276 276 276 275 276 275 275 275 276 276 277 277 277 277 277 277 277 276 276 276 276 277 277 277 277 277 278 278 278 278 278 278 279 279 279 280 279 279 280 280 280 281
281 281 280 280 279 279 280 280 279 279 279 278 277 278 278 277 277 277 277 276 276 276 276 276 275 275 275 275 275 275 276 276 277 277 277 277 277 277 277 276 276 276 276 276 276 276 276 277 277 278 278 278 278 278 279 279 279 279 279 280 280 280
279 279 279 279 279 279 279 280 279 279 279 278 278 279 278 277 277 276 276 275 276 276 275 276 275 275 275 275 275 275 275 276 276 276 276 276 276 276 276 276 275 276 275 276 276 276 276 276 277 277 277 277 278 278 278 278 279 279 279 280 280 281
278 278 279 279 279 279 279 279 279 278 278 277 277 277 278 277 276 276 276 275 276 276 276 276 276 276 275 275 275 275 275 275 275 275 275 275 276 275 275 275 275 275 275 275 275 275 275 276 276 276 276 276 277 277 277 278 278 278 279 279 280 280
278 279 278 279 278 278 278 279 279 278 278 278 277 277 276 277 277 276 275 275 276 276 276 275 275 275 275 276 276 276 275 275 275 275 275 275 275 275 275 275 275 275 275 275 275 275 275 275 275 276 275 276 276 276 276 277 277 277 278 279 279 279
278 278 278 278 278 278 278 278 279 279 278 278 278 277 277 278 277 276 276 276 277 276 276 276 275 275 276 276 276 276 276 276 276 275 275 275 275 275 275 275 275 276 275 275 275 275 275 275 275 274 275 275 275 275 276 276 277 277 278 278 278 279
278 278 277 277 277 277 278 278 278 278 278 278 278 278 278 277 276 276 276 275 276 276 276 275 276 276 275 275 275 275 275 275 275 275 275 275 275 276 275 276 275 275 275 275 275 275 275 275 274 275 275 275 275 276 276 276 277 277 277 278 278 279
278 278 277 277 277 278 278 278 278 278 279 279 278 278 277 276 276 276 275 275 275 275 275 275 275 275 275 274 275 275 275 275 275 275 275 275 275 275 275 275 275 275 274 274 274 274 274 274 274 276 279 280 278 277 277 277 277 277 276 276 277 277
277 277 277 278 278 278 279 279 279 279 279 279 278 278 277 277 276 275 274 275 275 275 275 274 274 274 274 274 274 273 273 274 273 273 273 273 273 273 273 274 273 273 273 273 273 273 273 273 274 277 279 280 281 278 277 276 276 276 276 276 276 276
277 277 277 278 278 278 278 279 279 279 279 278 278 276 275 275 274 274 274 274 274 274 274 274 274 274 273 273 272 272 271 271 271 271 271 271 271 271 272 271 271 272 272 272 272 272 272 272 275 277 278 279 280 280 277 276 276 276 276 276 276 276
278 278 278 278 279 278 279 279 279 279 279 278 276 275 275 274 273 273 273 273 273 273 273 273 272 271 271 271 270 270 269 269 269 269 269 269 270 270 270 270 270 270 270 270 270 270 270 271 274 276 277 278 278 279 278 275 275 275 274 275 275 275
278 278 279 279 279 279 279 278 279 278 276 275 274 274 273 273 273 272 272 271 271 271 271 271 269 269 268 268 268 268 268 268 267 268 268 268 268 268 268 268 268 268 268 268 268 268 269 269 272 275 276 276 277 277 277 274 274 274 274 274 274 274
278 278 277 277 278 277 277 277 276 275 274 274 274 272 272 271 271 270 271 270 270 269 268 269 267 266 267 266 266 266 266 266 266 267 267 267 267 266 266 266 265 266 266 266 266 266 266 267 272 274 274 275 275 276 275 272 272 271 271 271 272 272
277 278 278 278 277 277 276 276 275 275 273 272 272 270 270 269 269 269 269 268 268 268 268 266 265 265 265 266 265 265 265 265 265 264 265 265 265 265 265 265 265 264 264 265 265 265 264 265 271 272 272 273 274 275 271 270 269 268 268 268 269 269
277 277 276 276 276 275 274 274 274 273 271 270 269 268 268 268 267 268 268 268 267 266 266 266 265 264 264 264 263 263 263 263 263 263 263 263 263 263 263 263 263 264 263 263 263 263 263 264 267 270 272 272 273 272 268 268 268 267 267 267 268 269
276 276 277 275 274 273 273 272 272 271 269 268 268 266 267 266 267 267 266 266 264 265 265 264 262 263 262 262 261 261 262 262 262 262 262 262 261 261 262 262 262 262 263 262 262 262 262 263 266 270 271 271 272 271 268 267 266 266 266 267 268 269
276 276 274 274 272 272 270 269 269 269 268 267 267 266 265 266 266 265 264 265 264 264 263 262 262 261 261 260 261 261 260 261 261 261 261 261 261 261 261 261 261 261 261 261 262 265 264 262 264 268 269 270 271 269 267 267 267 266 266 267 267 268
274 273 273 272 271 269 268 267 268 266 266 266 266 265 264 265 265 264 264 264 263 262 261 260 260 260 260 260 260 260 260 260 260 260 260 260 260 260 260 260 260 260 260 261 261 261 261 261 261 263 269 270 271 271 268 267 266 265 266 266 266 266
275 274 271 270 269 268 267 266 266 266 265 265 264 264 265 264 264 263 263 262 261 260 260 259 259 259 259 259 259 260 260 260 260 260 259 259 259 259 259 259 259 259 259 260 260 260 261 261 261 262 268 270 271 271 270 267 266 266 266 266 266 266
270 269 269 268 267 266 265 265 265 264 264 263 262 263 264 263 263 262 260 260 259 259 258 257 258 258 258 258 258 258 258 259 259 259 259 259 259 258 258 258 259 258 259 259 260 260 260 262 265 262 266 269 270 271 272 268 267 268 267 266 266 267
269 268 267 267 266 266 265 262 262 262 262 261 262 263 262 262 261 260 259 258 258 257 257 257 257 257 257 257 258 257 257 258 258 258 258 258 258 258 257 257 258 258 258 258 259 259 260 260 261 266 264 268 270 271 272 272 271 273 270 268 267 267
268 267 266 266 265 263 263 261 261 260 260 261 263 262 260 259 259 258 257 256 256 256 256 256 256 257 256 257 257 256 256 257 257 257 257 258 257 257 257 257 257 257 257 257 257 258 259 260 261 264 267 267 270 271 272 273 273 273 270 269 268 268
267 266 264 264 263 262 260 259 259 260 258 261 261 260 259 258 257 256 255 255 255 255 255 255 255 255 255 256 256 256 256 257 256 256 257 257 257 257 256 256 256 256 256 256 257 258 259 260 261 261 264 268 270 271 272 273 273 274 274 269 269 269
264 264 263 263 262 262 260 259 259 257 259 260 260 259 258 256 254 254 254 254 254 254 254 255 255 255 256 256 256 256 256 256 257 256 257 256 256 256 256 256 256 256 256 257 258 259 260 261 261 262 262 265 267 268 270 272 273 273 273 273 271 273
263 262 261 261 260 259 259 257 258 259 259 257 259 258 256 254 254 254 254 254 254 254 254 254 255 256 256 254 256 256 256 257 256 256 256 256 256 256 256 256 256 257 258 258 259 260 261 262 263 264 264 265 265 265 266 267 267 270 272 269 268 270
262 261 260 261 261 259 258 257 257 257 256 256 257 255 254 254 254 254 253 253 253 254 254 254 257 257 256 255 255 255 256 256 256 256 256 256 256 256 257 257 258 259 259 259 260 262 263 264 265 265 265 265 266 266 267 267 267 266 266 265 266 266
260 259 259 259 260 258 256 255 255 255 256 258 256 254 253 253 254 254 252 253 254 254 255 255 255 255 255 255 255 255 256 256 256 256 257 259 259 259 259 260 262 263 263 264 264 264 264 264 265 265 270 269 272 270 269 269 269 269 269 270 273 269
258 258 258 258 258 256 255 255 255 255 257 255 254 253 252 253 253 251 252 254 253 254 254 255 254 254 255 255 255 255 255 260 264 263 261 261 265 268 270 270 265 266 266 266 267 267 265 265 267 272 273 273 273 273 275 275 275 275 273 275 277 275
258 256 256 257 256 255 255 255 255 254 254 255 256 254 253 252 253 253 254 254 253 255 256 255 255 255 254 255 255 255 255 255 257 263 266 267 267 268 269 270 271 271 271 268 266 268 272 272 273 273 273 274 273 273 274 275 275 276 276 276 273 271
256 256 256 255 255 254 254 254 255 254 254 254 254 253 252 252 252 253 254 254 254 255 256 255 255 255 255 255 255 255 255 255 255 256 262 266 267 268 269 269 270 270 270 271 270 268 267 269 272 273 273 273 274 274 273 274 275 276 276 276 275 270
257 256 255 254 254 253 253 254 255 254 254 254 253 253 252 251 252 253 253 254 254 255 256 256 255 255 255 254 254 255 255 255 255 254 255 258 265 267 267 268 268 268 269 269 270 270 270 271 271 272 273 273 273 274 274 274 274 275 275 275 270 267
255 255 254 253 253 253 253 254 254 254 254 252 252 252 251 252 252 252 253 254 254 254 254 254 254 254 255 255 255 255 255 255 255 255 256 256 256 257 261 265 267 267 268 268 269 269 270 270 271 271 272 272 273 273 274 273 270 272 273 271 267 266
254 253 254 255 254 254 253 254 254 253 253 252 251 251 250 251 253 252 254 256 256 253 254 254 255 255 254 255 255 255 255 256 257 257 256 255 255 255 255 256 258 263 267 265 266 268 269 269 270 270 271 272 272 272 272 270 264 264 265 266 266 266
254 253 253 253 253 252 253 254 254 254 253 251 250 250 251 252 253 253 254 254 255 254 254 255 254 255 255 255 255 256 257 257 256 256 256 256 256 256 256 256 257 258 263 267 267 267 268 269 269 270 271 271 270 270 269 261 261 261 262 263 263 264
Wind_Speed
5 5 5 5 5 5 5 4 4 3 3 2 3 3 2 2 2 2 3 4 4 4 4 4 5 4 4 3 3 3 3 4 4 4 4 5 6 7 8 8 8 7 8 6 6 5 5 5 5 5 6 6 7 7 6 5 4 5 6 7 6 7
7 6 6 6 6 5 5 5 4 5 4 4 2 1 2 3 4 4 5 4 5 5 5 4 4 4 4 4 4 4 4 4 4 4 4 4 4 4 4 5 6 8 8 8 9 9 8 8 7 6 5 5 4 5 6 7 6 6 7 7 5 5
6 6 6 6 5 5 4 4 5 5 4 4 4 4 3 4 4 5 4 5 4 5 4 3 3 4 3 4 4 4 4 4 4 4 3 4 5 4 6 6 7 6 7 7 8 7 8 8 9 8 7 8 8 7 6 6 6 6 7 7 9 7
5 5 4 4 4 4 4 4 4 4 4 4 3 3 4 5 4 5 4 4 4 4 4 3 2 3 3 4 4 4 4 4 4 4 4 4 4 3 4 5 5 5 6 6 7 8 7 7 8 8 7 8 8 9 7 8 8 8 8 6 7 8
6 6 7 7 7 7 6 5 5 4 3 3 2 4 1 3 3 4 4 4 4 3 3 2 3 3 3 4 4 4 5 4 4 4 5 5 5 4 4 4 4 5 5 5 6 6 6 7 7 7 7 8 8 9 9 8 8 9 10 10 9 9
5 5 6 6 5 5 6 5 3 2 3 3 3 3 3 3 3 3 3 3 2 0 1 1 1 2 2 3 3 3 4 4 4 4 4 5 4 6 5 4 5 5 5 5 6 6 6 7 7 8 7 8 8 10 11 11 10 10 10 10 11 10
6 6 6 5 5 5 4 5 4 4 4 4 3 2 2 3 3 3 2 3 1 1 0 1 1 1 2 2 3 3 3 4 4 4 4 5 5 5 6 6 4 5 6 7 7 8 8 8 8 9 9 8 7 9 10 11 11 11 12 11 11 11
5 5 5 6 5 5 4 5 4 4 4 4 3 3 2 3 3 4 4 3 2 1 1 0 0 1 2 3 4 4 4 4 4 4 4 4 5 5 4 6 6 5 7 7 6 7 8 8 9 9 10 9 9 9 10 10 10 10 11 12 12 12
7 8 7 6 5 5 5 5 5 4 4 4 4 3 4 4 4 4 4 3 1 1 2 3 4 3 4 4 4 4 4 5 5 5 6 5 5 6 8 7 8 7 6 8 7 8 9 9 9 9 10 9 9 9 10 11 11 11 11 11 12 12
7 7 7 6 6 5 5 5 6 6 6 6 5 5 4 4 4 4 3 2 0 1 2 3 3 4 4 4 5 5 5 5 6 5 5 4 6 7 8 9 10 10 8 9 9 9 9 10 11 10 9 8 8 9 10 11 12 13 13 13 13 12
8 7 6 6 5 6 7 6 5 4 5 5 5 5 6 4 4 3 2 1 1 1 1 2 2 2 3 4 5 6 6 6 6 6 6 6 7 7 8 9 9 10 11 10 10 11 10 11 11 9 8 8 10 9 10 12 12 12 13 13 14 14
7 6 6 6 7 8 7 7 7 7 7 6 5 5 4 4 4 4 3 2 1 1 2 2 2 2 2 4 5 5 5 6 7 8 9 9 9 9 10 10 10 9 10 12 13 12 11 11 10 12 21 20 14 13 11 11 12 12 12 13 14 14
6 5 6 8 9 10 9 8 8 7 7 7 6 6 5 5 4 4 3 1 0 1 1 3 4 4 5 4 5 5 6 7 7 7 8 9 10 10 11 10 12 12 11 11 12 13 12 11 11 21 23 24 26 18 13 13 13 12 12 12 13 15
7 8 8 9 10 8 7 8 8 7 8 7 5 4 4 4 3 2 1 2 2 4 5 5 5 6 6 6 6 6 6 6 7 8 9 10 11 11 10 11 11 12 12 11 12 13 13 13 17 24 24 25 26 23 16 13 13 11 13 11 13 12
9 10 10 8 8 8 9 9 7 8 8 5 3 3 4 3 3 3 3 4 4 5 5 5 6 5 6 6 6 6 7 8 9 9 9 11 9 9 11 12 12 13 11 11 13 14 14 13 19 23 26 26 26 26 22 13 13 13 13 14 14 14
6 8 9 8 7 7 6 4 6 3 1 3 4 5 4 3 3 3 3 3 3 3 4 5 5 5 5 5 7 7 8 9 9 9 8 10 10 10 11 11 12 12 11 11 12 13 14 14 17 24 26 26 27 27 24 15 15 15 14 15 14 14
8 7 6 7 8 6 4 3 3 4 4 5 6 3 4 4 3 3 3 3 3 3 4 5 4 5 5 5 6 7 7 8 9 9 9 9 10 11 11 12 13 13 11 11 11 12 14 12 21 24 27 27 28 28 24 16 16 16 18 18 17 18
9 9 10 7 5 4 4 5 5 6 5 4 6 4 4 3 3 3 2 3 2 3 4 4 4 5 5 6 6 6 8 7 7 9 9 9 9 9 9 11 9 12 13 11 11 12 15 14 22 25 26 26 26 28 17 15 16 17 17 17 17 17
6 7 4 4 5 6 5 5 5 7 5 5 4 4 3 3 2 2 2 1 3 3 4 4 4 5 5 5 7 8 8 9 9 8 6 10 9 10 10 10 11 10 11 13 12 12 15 14 18 24 26 26 28 23 14 15 15 16 17 18 17 17
3 3 7 6 4 4 4 4 6 6 5 4 3 3 2 2 1 0 1 2 3 3 3 4 4 5 5 5 6 8 8 7 7 8 6 8 11 11 10 10 11 10 9 11 13 11 14 15 17 25 26 27 27 24 16 14 14 15 16 17 17 16
3 4 4 6 7 3 4 4 6 6 4 3 3 2 1 0 0 2 2 2 2 2 3 3 4 4 6 6 7 7 9 8 8 8 7 8 9 11 10 10 11 11 9 9 12 18 19 15 17 24 25 28 26 21 14 13 13 15 15 15 15 15
6 4 5 5 5 3 4 4 5 4 4 3 2 1 1 1 2 2 2 2 2 2 3 3 4 5 6 8 8 7 8 8 8 8 8 8 8 10 10 9 10 12 11 9 11 11 11 14 14 16 27 26 26 26 17 12 12 13 15 15 15 14
5 6 5 5 5 4 3 4 5 4 3 3 2 1 1 2 2 2 1 1 2 2 3 4 4 6 6 6 8 8 7 7 8 9 8 10 9 9 10 11 10 11 11 9 9 9 10 10 14 15 25 26 26 27 23 12 12 12 13 12 13 13
6 7 5 4 5 4 3 4 4 3 3 2 1 2 2 1 1 1 0 1 2 3 4 5 5 5 6 6 7 8 8 7 7 8 9 9 9 12 12 11 10 10 10 9 8 9 10 11 19 16 22 26 27 26 28 18 14 16 15 15 13 13
7 6 6 4 4 4 3 4 4 3 2 2 2 2 2 1 0 0 1 2 3 4 5 5 5 7 5 7 7 8 9 8 8 8 8 10 11 11 12 11 10 10 10 10 8 8 9 10 12 22 20 24 27 28 27 29 24 28 19 15 15 13
6 7 5 4 4 3 3 4 4 2 1 3 2 2 1 0 0 1 2 3 4 5 5 5 6 6 6 7 7 7 8 9 8 8 7 9 9 10 11 9 8 9 9 11 10 8 9 10 11 16 24 23 27 27 28 28 30 30 19 17 14 14
11 8 6 4 4 4 3 3 3 1 2 1 2 0 1 1 1 1 3 4 4 5 5 5 6 6 6 7 7 7 7 8 7 9 7 7 9 9 10 10 8 9 10 10 11 11 11 11 11 11 16 25 26 28 29 30 31 30 31 21 15 15
6 7 7 4 4 4 3 3 2 1 2 1 0 1 1 1 1 2 4 4 4 5 5 6 6 6 7 7 6 6 6 7 8 8 9 8 9 9 10 11 9 9 9 10 11 12 12 12 11 12 12 13 18 20 27 32 32 33 33 30 24 31
7 6 6 5 3 4 3 2 1 3 2 1 1 1 1 1 2 3 4 4 5 5 5 5 6 6 5 5 5 5 6 6 7 8 9 9 9 9 9 10 9 10 10 11 12 12 12 11 10 10 10 10 11 12 15 17 18 26 28 21 17 21
7 6 6 5 5 4 3 2 2 2 1 2 2 1 1 2 3 4 4 5 4 5 5 6 7 7 6 5 5 6 6 6 6 8 9 9 9 10 11 10 10 11 12 12 11 11 10 11 10 10 10 11 12 12 12 13 12 11 11 13 14 15
6 5 5 4 4 4 3 3 3 2 2 2 1 1 1 3 4 4 4 5 4 5 5 5 5 6 6 6 5 6 6 8 8 9 10 10 9 9 10 11 12 11 11 10 11 11 11 12 11 10 17 20 25 22 17 13 11 12 11 14 22 17
5 6 5 4 4 3 2 3 3 2 2 2 2 2 2 4 3 3 4 4 4 5 5 5 5 5 6 6 7 7 7 9 16 13 11 11 17 24 25 22 15 13 12 11 9 8 11 11 13 26 32 30 31 32 33 30 30 29 23 26 34 24
5 5 4 3 3 2 2 3 4 3 3 3 3 3 3 3 3 3 4 4 4 5 6 5 5 5 5 5 6 6 8 10 9 16 21 21 21 22 24 24 26 28 27 20 15 14 26 29 31 30 30 31 31 30 31 31 30 31 32 33 23 15
4 4 3 3 3 2 2 4 4 3 4 3 3 3 3 3 3 4 5 5 5 6 6 5 5 5 5 5 5 6 7 8 11 13 17 20 19 22 24 24 25 25 25 25 23 20 14 21 27 30 30 30 30 30 31 30 31 30 31 31 29 14
4 3 3 2 2 2 3 4 5 3 3 4 3 2 3 4 4 5 5 5 5 5 6 6 5 5 5 6 7 7 6 8 8 11 14 18 24 26 23 21 21 22 22 24 26 27 25 25 26 29 29 29 29 30 29 31 30 28 27 26 14 9
4 3 2 2 2 3 3 5 5 4 4 4 4 3 4 4 5 5 5 5 5 5 5 5 5 5 5 5 6 7 7 7 7 8 10 12 13 19 25 29 26 21 21 22 25 26 26 26 27 28 28 28 29 29 29 27 21 24 23 18 12 10
3 2 2 3 3 3 4 7 6 4 4 3 4 4 4 4 5 4 6 9 7 4 5 5 5 5 5 6 6 7 7 7 7 8 9 9 10 11 13 13 19 26 29 24 22 24 27 27 27 28 27 28 27 27 28 25 13 13 12 12 11 12
1 2 3 2 3 4 4 7 5 3 4 4 4 4 4 5 5 5 5 4 5 5 4 4 4 5 5 6 6 6 7 7 8 8 8 9 9 9 10 12 12 13 21 30 25 26 26 28 28 27 27 25 26 25 25 14 12 11 11 12 11 11
Wind_Direction
183 176 176 183 180 179 179 181 182 188 202 196 160 138 135 119 87 74 57 56 58 60 51 47 32 24 24 3 3 20 34 9 5 5 348 353 355 358 354 353 349 351 347 351 343 340 339 334 337 339 338 341 336 334 328 318 321 315 308 303 305 295
186 181 176 179 183 184 186 176 168 171 186 167 163 144 105 64 52 53 51 38 47 37 40 34 40 30 26 9 3 354 357 345 1 353 358 344 345 348 350 347 344 340 341 339 339 335 335 336 333 336 330 325 316 311 317 311 321 317 308 300 294 291
190 187 181 179 181 181 176 172 171 179 176 170 166 126 97 71 61 61 51 54 47 55 45 26 32 25 22 16 15 1 342 330 346 345 324 338 343 347 348 345 341 336 333 330 328 327 324 327 325 329 330 328 319 317 308 306 307 303 299 302 303 298
189 191 185 173 170 192 193 198 181 182 168 175 166 117 93 88 65 70 59 58 59 54 37 8 22 20 23 17 4 7 351 341 335 333 344 346 318 346 333 329 326 327 324 325 321 321 319 315 314 315 320 314 313 308 310 309 309 305 298 295 290 291
177 177 178 183 183 185 187 198 176 178 166 150 146 112 126 114 106 89 86 66 57 31 11 12 3 360 6 7 345 352 338 335 326 336 344 328 324 327 322 314 313 311 311 308 306 305 308 306 307 307 308 305 304 302 301 300 299 297 296 295 288 285
174 171 181 188 190 190 195 197 189 169 140 137 131 125 140 130 130 108 95 87 63 9 7 342 312 351 327 339 307 312 310 314 314 320 328 313 319 319 314 312 307 306 305 303 301 302 302 306 303 303 299 297 300 302 300 302 299 292 288 285 287 287
177 188 189 196 208 211 205 191 188 164 166 152 145 161 182 154 150 127 143 146 164 215 215 267 256 269 298 297 296 291 295 297 300 306 303 307 307 305 310 311 307 304 304 306 307 307 307 304 303 301 300 298 296 293 294 295 296 294 290 286 282 282
189 194 204 210 208 197 188 180 181 190 181 195 182 175 191 204 171 170 170 187 183 199 211 245 268 299 314 316 316 318 311 311 310 305 297 292 301 302 296 294 300 292 296 295 292 292 295 297 297 296 297 299 301 298 294 291 288 288 287 287 286 283
205 208 208 206 198 189 181 175 192 195 194 214 222 212 197 200 179 187 191 191 181 16 346 346 345 343 340 335 327 325 326 325 322 321 317 314 308 313 317 313 306 300 289 293 293 291 292 294 292 292 294 296 296 295 295 296 293 288 286 281 280 280
209 209 207 204 201 202 198 199 193 192 195 209 218 216 213 211 187 190 192 167 28 343 325 332 326 338 331 329 330 327 325 324 323 320 312 315 316 315 315 313 311 307 304 297 298 296 297 295 294 292 293 294 296 296 291 290 291 291 289 288 284 280
208 206 207 208 205 203 210 210 215 215 211 216 205 191 211 193 175 186 181 172 205 263 274 294 306 299 328 325 327 329 326 327 323 322 322 318 314 311 306 304 303 304 305 303 299 303 303 300 297 299 304 304 298 291 289 290 288 289 289 288 287 285
206 207 206 212 207 209 211 212 210 205 203 214 217 203 216 146 189 169 175 185 221 264 278 289 302 326 338 336 332 328 327 330 332 329 326 321 317 315 313 310 308 303 302 306 305 304 302 298 297 302 308 308 304 304 301 295 290 287 284 284 285 282
216 216 213 215 212 213 210 209 211 210 211 214 206 205 191 173 165 157 147 172 216 266 324 348 347 353 356 345 339 340 342 336 332 326 319 316 316 315 314 314 310 308 306 306 306 305 302 299 300 308 310 309 309 309 305 300 295 286 280 277 276 280
216 217 219 222 221 216 213 216 218 211 218 214 211 199 155 140 123 108 84 38 14 11 5 353 353 358 351 354 346 343 337 330 327 323 318 315 317 315 313 309 305 305 310 309 307 303 300 301 305 311 310 309 309 308 305 301 295 292 287 282 279 277
214 214 222 227 225 219 222 215 211 217 220 205 194 131 112 101 92 79 50 29 20 8 2 360 2 355 352 350 344 335 334 328 322 320 320 314 311 312 308 307 309 305 309 308 306 303 302 301 310 312 310 308 309 308 307 299 292 288 286 285 282 282
237 231 229 232 235 230 236 221 223 233 159 138 117 109 96 92 65 64 45 36 16 6 6 15 13 359 346 340 334 332 326 325 316 316 314 310 312 310 306 305 303 304 306 307 306 302 302 302 313 311 308 308 308 307 305 296 292 288 283 282 281 282
236 244 252 244 234 230 209 204 157 125 114 115 100 88 89 74 66 46 37 25 7 15 20 22 9 346 332 327 325 322 316 314 312 312 312 310 307 309 306 308 308 305 306 306 305 302 299 301 309 308 307 307 306 304 303 298 296 295 292 291 292 292
217 217 226 225 201 192 170 163 150 120 115 96 102 92 84 76 61 43 33 20 16 34 28 16 349 331 324 320 318 313 307 307 304 305 309 304 300 296 296 295 296 299 303 304 303 301 297 298 307 307 305 305 304 305 303 300 296 291 288 286 288 286
212 216 186 148 155 143 141 136 125 120 115 94 84 84 69 66 55 34 25 24 34 31 21 360 340 321 315 314 311 306 304 305 303 297 299 296 295 296 297 294 294 297 299 300 298 296 295 296 304 304 304 305 304 304 297 293 290 287 288 287 289 289
223 192 157 142 121 115 121 120 118 113 104 100 87 80 72 72 68 38 60 48 31 18 4 349 330 313 310 305 299 297 296 295 291 289 295 291 298 295 292 293 293 290 291 292 294 294 293 295 301 304 304 303 302 299 295 292 289 285 285 287 285 287
179 150 129 129 125 116 99 103 102 99 102 105 98 92 99 106 163 75 52 32 24 5 354 325 316 304 300 295 290 291 290 290 287 289 290 284 285 286 290 291 290 289 286 282 285 293 295 295 299 303 303 300 298 297 288 284 280 283 284 287 289 288
116 126 141 136 130 113 104 93 92 99 114 122 118 119 158 166 112 85 57 34 15 348 318 302 297 291 289 287 287 283 280 284 288 286 289 286 283 286 288 287 286 287 287 286 285 286 286 290 292 297 298 297 295 295 292 285 284 285 286 283 283 288
154 150 141 128 123 114 106 102 100 116 130 143 124 184 169 122 87 61 47 19 319 289 283 280 273 278 275 272 278 280 282 281 283 290 288 290 288 283 285 285 284 284 282 280 276 278 283 283 289 291 293 294 294 294 294 286 278 276 278 278 276 273
121 117 110 114 120 120 113 110 115 135 147 138 194 199 123 91 89 67 17 286 273 272 271 269 268 263 267 272 273 279 280 275 276 282 288 286 288 288 286 286 285 284 283 280 277 279 282 285 288 288 288 290 292 292 291 290 281 282 280 279 272 275
147 148 142 140 135 128 130 117 128 150 156 174 219 145 119 123 108 256 255 273 270 266 266 265 264 266 264 268 266 271 279 283 284 281 280 285 287 285 286 286 284 286 287 287 282 279 280 278 276 280 282 285 288 291 291 290 289 288 287 283 282 278
146 144 151 146 139 128 129 125 138 154 165 244 142 132 132 168 206 236 260 263 264 265 266 263 262 262 263 264 268 267 273 281 281 282 281 282 283 287 289 286 286 287 287 292 293 282 276 274 272 273 277 282 284 288 290 290 290 290 285 281 278 279
165 153 151 155 144 140 131 125 123 155 221 208 119 195 185 216 219 249 262 260 262 264 263 263 261 262 259 259 259 269 274 279 284 288 282 279 282 281 284 287 285 284 287 289 289 289 283 274 269 266 269 275 281 287 289 290 289 287 286 284 280 275
141 150 157 168 156 136 127 120 134 193 228 155 173 208 206 227 257 265 260 260 260 263 268 272 268 260 258 259 254 254 265 275 286 284 287 284 279 279 281 286 286 281 283 284 285 283 279 274 269 269 267 264 270 274 280 282 283 282 281 277 275 276
149 164 167 176 180 150 146 148 196 210 238 241 239 241 252 263 259 264 266 268 269 269 270 271 276 274 265 264 264 260 264 272 273 277 280 281 283 282 279 281 284 285 282 282 280 278 276 273 271 270 270 272 274 268 266 271 269 268 269 269 268 269
163 172 175 187 181 162 160 186 224 233 229 239 248 245 262 270 264 266 269 274 274 275 271 270 271 277 283 273 271 281 280 267 264 270 274 280 280 285 284 281 283 282 282 277 272 272 276 282 283 275 276 276 271 269 268 261 259 256 240 254 260 256
165 173 172 184 165 165 178 216 237 237 231 243 245 230 251 265 267 272 277 277 279 278 274 270 274 275 279 286 273 257 256 274 277 272 271 258 248 253 268 277 281 277 279 274 284 290 281 286 285 280 293 294 298 298 294 288 282 275 268 253 257 257
155 160 167 181 170 174 188 241 259 249 240 242 246 223 235 263 274 279 278 274 275 277 279 277 274 277 279 282 290 292 280 264 281 282 283 288 287 288 290 293 294 295 293 290 275 277 293 296 295 301 304 304 302 299 301 300 300 299 299 300 301 304
146 142 156 180 165 177 208 251 260 258 260 239 238 222 236 250 270 274 275 281 277 277 282 285 285 281 280 280 288 291 297 303 289 288 289 289 292 295 297 300 300 300 301 301 301 301 300 301 303 304 304 304 305 307 309 309 308 307 307 308 306 304
157 165 177 174 170 201 226 255 261 242 252 245 243 233 229 241 244 268 273 273 276 282 283 278 282 289 290 291 287 292 298 299 306 306 302 303 301 303 305 305 306 305 306 305 306 307 304 302 304 306 308 310 310 310 309 309 308 310 311 310 314 309
165 152 159 166 189 218 236 252 262 239 241 244 239 231 237 245 239 255 270 270 279 278 285 292 287 289 291 299 303 298 296 298 302 307 313 317 317 314 309 308 308 311 311 313 312 310 308 310 311 312 313 314 314 314 314 314 318 321 318 318 317 310
137 148 173 197 216 227 240 256 259 240 243 241 241 235 230 244 247 252 257 269 272 279 280 281 283 289 291 288 290 287 291 289 290 294 301 310 317 324 326 325 322 319 320 317 316 314 315 316 317 317 317 318 317 319 324 326 325 321 321 322 312 305
146 180 205 219 229 235 246 258 261 244 242 245 242 242 251 249 253 254 258 267 278 265 269 272 281 286 287 287 287 287 287 290 294 299 302 302 308 311 310 307 315 319 324 326 324 322 322 322 321 321 319 321 326 330 332 336 333 328 329 330 326 316
173 217 232 234 237 240 251 262 261 250 244 246 239 239 245 254 255 257 268 265 271 274 264 273 270 277 281 283 282 281 291 296 298 301 297 298 296 295 294 298 304 306 311 318 322 322 322 324 324 322 323 329 334 335 340 336 328 326 324 320 314 307